BRASILSAT B2

Last updated on July 5, 2018, 12:20 a.m. UTC

1 23536U 95016A   18185.58773492 -.00000028  00000-0  00000-0 0  9999
2 23536   7.6129  49.2636 0001237 170.9339 179.2119  0.99236249 85266
UTC
Height (km)
Latitude
Longitude
Inclination
Orbital Period
UTC large
Height (km)
Speed (km/s)
/
Latitude / Longitude
Inclination (degrees)
Orbital Period (minutes)
Azimuth
Elevation
Range (km)
Doppler Factor
iOS Compass Heading
iOS Angle

Next 30 passes for location: Hong Kong

Rise time Rise Azimuth (degrees) Set time Set Azimuth (degrees) Duration Max altitude (degrees)

No matching passes for this satellites